Track NAVSTAR 69 (USA 248) now! NAVSTAR 69 (USA 248) is classified as:
1 39533U 14008A 21022.79901043 .00000092 00000-0 00000-0 0 9997 2 39533 53.7078 229.7583 0048562 199.2383 160.6306 2.00553542 50161